User: anonymous   Login
Location: Belfast
(54.5830°N, 5.9330°W)
Time: 14:15:36
(UTC+00:00)
Language:

Coronas F rocket - Orbit

View from above orbital plane
View from above orbital plane
View from above satellite
View from above satellite

Ground track
Ground track

The orbit data is extracted from the following two-line orbital elements,

1 26874U 01032B   15024.54792341  .00012842  00000-0  16273-3 0  9089
2 26874 082.4691 110.3848 0011844 320.3255 039.7133 15.59214553755702
Epoch (UTC): 24 January 2015 13:09:00
Eccentricity: 0.0011844
inclination: 82.4691°
perigee height: 382 km
apogee height: 398 km
right ascension of ascending node: 110.3848°
argument of perigee: 320.3255°
revolutions per day: 15.59214553
mean anomaly at epoch: 39.7133°
orbit number at epoch: 75570

The dashed part of the orbit path shows where the satellite is in the earth's shadow,  

DLR